FW2156 Weather Reports


time (UTC)temp
C
wind
direction
speed
KPH
gust
KPH
rain 1hr
cm
rain 24hr
cm
rain mn
cm
humidity
%
barometer
mb
20260504141223 5 202 0.0 0.0 0.00 0.00 0.03 60 1013.9
20260504140724 5 240 3.2 3.2 0.00 0.00 0.03 59 1013.5
20260504140223 5 251 1.6 3.2 0.00 0.00 0.03 60 1013.9
20260504130738 5 285 3.2 4.8 0.00 0.00 0.03 63 1013.2
20260504130243 5 233 1.6 1.6 0.00 0.00 0.03 65 1013.2
20260504120222 5 241 0.0 1.6 0.00 0.00 0.03 67 1013.2
20260504110719 6 269 0.0 3.2 0.00 0.00 0.03 65 1013.2
20260504110219 6 44 4.8 4.8 0.00 0.00 0.03 65 1013.2
20260504100218 7 218 0.0 0.0 0.00 0.00 0.03 81 1012.9
20260504081715 8 314 1.6 3.2 0.00 0.00 0.03 74 1012.9
20260504081216 8 324 1.6 3.2 0.00 0.00 0.03 75 1012.9
20260504080714 8 246 1.6 1.6 0.00 0.00 0.03 76 1012.9
20260504080215 7 243 0.0 0.0 0.00 0.00 0.03 75 1013.2
20260504070213 8 288 6.4 8.0 0.00 0.00 0.00 73 1013.5
20260504060214 10 17 11.3 17.7 0.00 0.00 0.00 61 1013.2
20260504050714 11 359 4.8 9.7 0.00 0.00 0.00 53 1012.9
20260504050211 11 359 4.8 9.7 0.00 0.00 0.00 53 1012.5
20260504045711 11 348 4.8 8.0 0.00 0.00 0.00 52 1012.5
20260504045143 11 22 8.0 12.9 0.00 0.00 0.00 52 1012.9
20260504044638 11 29 6.4 11.3 0.00 0.00 0.00 51 1012.9
20260504044135 12 326 1.6 3.2 0.00 0.00 0.00 51 1012.5
20260504043642 12 272 4.8 9.7 0.00 0.00 0.00 50 1012.2
20260504043140 12 69 6.4 9.7 0.00 0.00 0.00 49 1012.2
20260504042640 12 37 3.2 3.2 0.00 0.00 0.00 48 1012.2
20260504042138 12 64 3.2 4.8 0.00 0.00 0.00 47 1011.9
20260504041638 12 55 6.4 9.7 0.00 0.00 0.00 47 1012.2
20260504041140 12 140 1.6 3.2 0.00 0.00 0.00 46 1012.2
20260504040641 12 143 3.2 4.8 0.00 0.00 0.00 46 1011.9
20260504040138 12 43 4.8 4.8 0.00 0.00 0.00 46 1011.9
20260504035639 12 136 4.8 8.0 0.00 0.00 0.00 46 1011.9
20260504035137 12 69 4.8 4.8 0.00 0.00 0.00 46 1011.5
20260504034642 13 33 8.0 12.9 0.00 0.00 0.00 46 1011.5
20260504034136 13 358 4.8 4.8 0.00 0.00 0.00 45 1011.5
20260504033616 13 296 4.8 8.0 0.00 0.00 0.00 45 1011.5
20260504033113 13 129 4.8 4.8 0.00 0.00 0.00 45 1010.8
20260504032611 13 359 8.0 12.9 0.00 0.00 0.00 45 1010.8
20260504032110 13 7 1.6 3.2 0.00 0.00 0.00 45 1010.5
20260504031613 13 133 4.8 8.0 0.00 0.00 0.00 45 1010.2
20260504031139 13 281 9.7 17.7 0.00 0.00 0.00 44 1010.2
20260504030638 13 106 1.6 3.2 0.00 0.00 0.00 45 1010.2
20260504030138 14 103 6.4 11.3 0.00 0.00 0.00 44 1010.2
20260504025644 14 104 0.0 1.6 0.00 0.00 0.00 44 1010.2
20260504025137 14 49 4.8 11.3 0.00 0.00 0.00 44 1010.2
20260504024637 14 89 3.2 9.7 0.00 0.00 0.00 44 1009.8
20260504024142 14 16 8.0 11.3 0.00 0.00 0.00 44 1010.2
20260504023640 15 119 6.4 9.7 0.00 0.00 0.00 43 1009.8
20260504023139 15 110 4.8 4.8 0.00 0.00 0.00 44 1009.8
20260504022635 15 135 6.4 11.3 0.00 0.00 0.00 43 1009.5
20260504022137 15 89 4.8 9.7 0.00 0.00 0.00 43 1009.5
20260504021643 15 138 8.0 12.9 0.00 0.00 0.00 43 1009.8
20260504021140 15 309 4.8 4.8 0.00 0.00 0.00 43 1009.5
20260504020640 16 68 3.2 4.8 0.00 0.00 0.00 43 1009.5
20260504020118 16 132 6.4 12.9 0.00 0.00 0.00 42 1009.1
20260504015618 16 19 4.8 9.7 0.00 0.00 0.00 42 1009.1
20260504015117 17 160 1.6 1.6 0.00 0.00 0.00 42 1009.1
20260504014617 17 1 9.7 16.1 0.00 0.00 0.00 41 1008.8
20260504014116 17 138 12.9 14.5 0.00 0.00 0.00 42 1008.8
20260504013618 17 96 3.2 3.2 0.00 0.00 0.00 42 1008.8
20260504013119 17 80 1.6 3.2 0.00 0.00 0.00 41 1008.5
20260504012617 17 38 3.2 4.8 0.00 0.00 0.00 41 1008.5
20260504012117 17 168 3.2 4.8 0.00 0.00 0.00 41 1008.1
20260504011616 18 88 4.8 8.0 0.00 0.00 0.00 41 1008.8
20260504011116 18 112 4.8 4.8 0.00 0.00 0.00 41 1008.5
20260504010616 18 114 4.8 8.0 0.00 0.00 0.00 41 1008.5
20260504010116 18 139 6.4 11.3 0.00 0.00 0.00 40 1008.5
20260504005617 18 125 8.0 12.9 0.00 0.00 0.00 41 1008.1
20260504005115 18 252 1.6 3.2 0.00 0.00 0.00 40 1007.8
20260504004615 18 116 6.4 11.3 0.00 0.00 0.00 40 1007.8
20260504004117 18 91 3.2 4.8 0.00 0.00 0.00 40 1007.8
20260504003616 18 228 1.6 3.2 0.00 0.00 0.00 40 1007.8
20260504003116 19 339 3.2 4.8 0.00 0.00 0.00 40 1007.8
20260504002616 19 300 4.8 9.7 0.00 0.00 0.00 40 1007.8
20260504002115 19 266 1.6 3.2 0.00 0.00 0.00 40 1007.8
20260504001617 19 261 4.8 11.3 0.00 0.00 0.00 40 1007.5
20260504001115 19 188 6.4 8.0 0.00 0.00 0.00 40 1007.5
20260504000616 19 216 3.2 4.8 0.00 0.00 0.00 39 1007.8
20260504000115 20 352 8.0 11.3 0.00 0.00 0.00 39 1007.5
20260503235616 20 100 8.0 12.9 0.00 0.00 0.00 39 1007.5
20260503235114 20 107 8.0 12.9 0.00 0.00 0.00 39 1007.5
20260503234614 20 11 4.8 8.0 0.00 0.00 0.00 39 1007.5
20260503234114 20 5 4.8 9.7 0.00 0.00 0.00 39 1007.5
20260503233614 20 124 4.8 8.0 0.00 0.00 0.00 38 1007.5
20260503233114 20 71 9.7 12.9 0.00 0.00 0.00 38 1007.5
20260503232614 20 145 4.8 8.0 0.00 0.00 0.00 38 1007.5
20260503232113 20 146 6.4 12.9 0.00 0.00 0.00 37 1007.1
20260503231614 21 355 12.9 16.1 0.00 0.00 0.00 37 1007.5
20260503231113 21 213 4.8 11.3 0.00 0.00 0.00 37 1007.5
20260503230613 21 104 9.7 16.1 0.00 0.00 0.00 37 1007.1
20260503230113 22 236 4.8 8.0 0.00 0.00 0.00 37 1007.1
20260503225615 22 176 3.2 4.8 0.00 0.00 0.00 37 1007.1
20260503225112 22 139 6.4 12.9 0.00 0.00 0.00 37 1007.1
20260503224614 22 165 3.2 3.2 0.00 0.00 0.00 36 1007.1
20260503224115 22 136 8.0 14.5 0.00 0.00 0.00 33 1006.8
20260503223612 22 154 3.2 4.8 0.00 0.00 0.00 33 1007.1
20260503223112 22 205 0.0 1.6 0.00 0.00 0.00 34 1006.8
20260503222612 22 29 8.0 11.3 0.00 0.00 0.00 33 1007.1
20260503222111 22 0 4.8 8.0 0.00 0.00 0.00 33 1006.8
20260503221614 22 49 6.4 12.9 0.00 0.00 0.00 34 1006.8
20260503221112 22 342 1.6 3.2 0.00 0.00 0.00 33 1007.1
20260503220616 22 178 3.2 4.8 0.00 0.00 0.00 34 1007.1
20260503220111 22 85 8.0 8.0 0.00 0.00 0.00 34 1007.1
20260503215611 22 101 1.6 1.6 0.00 0.00 0.00 33 1007.1
20260503215110 22 93 4.8 8.0 0.00 0.00 0.00 34 1007.5
20260503214612 22 99 4.8 8.0 0.00 0.00 0.00 34 1007.1
20260503214110 22 44 8.0 14.5 0.00 0.00 0.00 34 1007.1
20260503213611 22 190 3.2 4.8 0.00 0.00 0.00 33 1007.1
20260503213113 22 227 3.2 3.2 0.00 0.00 0.00 33 1007.1
20260503212610 22 111 6.4 11.3 0.00 0.00 0.00 33 1007.1
20260503212113 22 169 3.2 4.8 0.00 0.00 0.00 34 1007.1
20260503211611 22 196 1.6 3.2 0.00 0.00 0.00 33 1007.1
20260503211109 22 107 3.2 3.2 0.00 0.00 0.00 33 1007.1
20260503210614 22 112 6.4 9.7 0.00 0.00 0.00 34 1007.1
20260503210109 22 300 6.4 14.5 0.00 0.00 0.00 34 1007.5
20260503205612 22 49 8.0 11.3 0.00 0.00 0.00 34 1007.5
20260503205112 22 96 8.0 14.5 0.00 0.00 0.00 33 1007.5
20260503204609 23 168 4.8 8.0 0.00 0.00 0.00 33 1007.5
20260503204110 23 32 4.8 4.8 0.00 0.00 0.00 33 1007.5
20260503203543 23 173 1.6 3.2 0.00 0.00 0.00 30 1007.5
20260503203040 22 44 1.6 4.8 0.00 0.00 0.00 30 1007.8
20260503202536 22 155 1.6 3.2 0.00 0.00 0.00 30 1007.5
20260503202043 22 10 8.0 11.3 0.00 0.00 0.00 30 1007.8
20260503201538 22 303 6.4 8.0 0.00 0.00 0.00 30 1007.5
20260503201040 22 299 0.0 1.6 0.00 0.00 0.00 31 1007.5
20260503200541 22 105 4.8 8.0 0.00 0.00 0.00 30 1007.5
20260503200039 21 118 3.2 3.2 0.00 0.00 0.00 31 1007.8
20260503195538 21 74 6.4 8.0 0.00 0.00 0.00 30 1007.8
20260503195038 21 258 3.2 4.8 0.00 0.00 0.00 31 1008.1
20260503194537 21 270 4.8 8.0 0.00 0.00 0.00 31 1008.1
20260503194039 21 49 8.0 11.3 0.00 0.00 0.00 31 1008.1
20260503193537 22 313 3.2 4.8 0.00 0.00 0.00 31 1008.1
20260503193036 21 115 4.8 4.8 0.00 0.00 0.00 32 1008.1
20260503192543 21 99 3.2 4.8 0.00 0.00 0.00 31 1008.1
20260503192036 21 88 3.2 8.0 0.00 0.00 0.00 32 1008.1
20260503191538 21 110 0.0 1.6 0.00 0.00 0.00 32 1008.5
20260503191036 21 320 3.2 4.8 0.00 0.00 0.00 31 1008.5
20260503190535 20 59 3.2 3.2 0.00 0.00 0.00 33 1008.5
20260503190042 20 291 3.2 4.8 0.00 0.00 0.00 34 1008.8
20260503185539 20 307 1.6 3.2 0.00 0.00 0.00 34 1008.8
20260503185041 20 293 4.8 4.8 0.00 0.00 0.00 31 1008.8
20260503184540 20 55 9.7 12.9 0.00 0.00 0.00 31 1008.8
20260503184112 20 267 9.7 14.5 0.00 0.00 0.00 32 1008.8
20260503183611 20 296 8.0 9.7 0.00 0.00 0.00 32 1008.8
20260503183114 20 264 8.0 9.7 0.00 0.00 0.00 32 1008.8
20260503182613 20 281 6.4 8.0 0.00 0.00 0.00 32 1008.8
20260503182111 20 267 8.0 14.5 0.00 0.00 0.00 34 1009.1
20260503181611 20 329 3.2 4.8 0.00 0.00 0.00 34 1008.8
20260503181113 20 257 6.4 11.3 0.00 0.00 0.00 34 1009.1
20260503180617 20 258 6.4 9.7 0.00 0.00 0.00 34 1009.1
20260503180110 20 310 6.4 9.7 0.00 0.00 0.00 34 1009.1
20260503175612 19 21 4.8 9.7 0.00 0.00 0.00 33 1009.1
20260503175113 19 290 6.4 9.7 0.00 0.00 0.00 34 1009.1
20260503174614 19 18 4.8 8.0 0.00 0.00 0.00 35 1009.5
20260503174110 19 293 8.0 9.7 0.00 0.00 0.00 35 1009.5
20260503173610 19 234 14.5 22.5 0.00 0.00 0.00 35 1009.5
20260503173113 19 162 4.8 8.0 0.00 0.00 0.00 36 1009.8
20260503172612 19 322 4.8 8.0 0.00 0.00 0.00 35 1009.8
20260503172113 18 242 4.8 8.0 0.00 0.00 0.00 35 1009.8
20260503171612 18 218 6.4 9.7 0.00 0.00 0.00 35 1009.8
20260503171137 18 289 9.7 12.9 0.00 0.00 0.00 36 1009.8
20260503170638 18 260 1.6 3.2 0.00 0.00 0.00 36 1010.2
20260503170141 18 278 4.8 4.8 0.00 0.00 0.00 35 1009.5
20260503150510 12 288 4.8 4.8 0.00 0.00 0.00 47 1010.2